This demonstration page uses our WeatherBlox Daily Observations layout. Learn more.

38.88101, -77.10428

Hourly Observations for February 28, 2018

Temp ( °F °C ) Dew Point ( °F °C ) Humidity (%) Winds ( mph kmh ) Pressure ( in mb ) Visibility ( mi km ) Precip ( " mm )
12:52 am 00:52 Cloudy 45 7.2 32 0 61 61 S 9 15 30.23 1024 10 16.0934 0 0
1:52 am 01:52 Cloudy 44 6.7 32 0 63 63 SSE 6 9 30.23 1024 10 16.0934 0 0
2:52 am 02:52 Cloudy 45 7.2 34 1.1 66 66 S 8 13 30.22 1023 10 16.0934 0 0
3:52 am 03:52 Cloudy 45 7.2 34 1.1 66 66 S 17 28 30.18 1022 10 16.0934 0 0
4:52 am 04:52 Cloudy 45 7.2 33 0.6 63 63 SSW 12 19 30.17 1022 10 16.0934 0 0
5:52 am 05:52 Cloudy 45 7.2 33 0.6 63 63 SSW 15 24 30.17 1022 10 16.0934 0 0
6:52 am 06:52 Cloudy 45 7.2 33 0.6 63 63 S 8 13 30.16 1021 10 16.0934 0 0
7:52 am 07:52 Cloudy 45 7.2 34 1.1 66 66 SSW 10 17 30.15 1021 10 16.0934 0 0
8:52 am 08:52 Cloudy 47 8.3 35 1.7 63 63 SSW 13 20 30.14 1021 10 16.0934 0 0
9:52 am 09:52 Cloudy 50 10 34 1.1 54 54 SW 14 22 30.12 1020 10 16.0934 0 0
10:52 am 10:52 Cloudy 54 12.2 35 1.7 49 49 SW 13 20 30.1 1019 10 16.0934 0 0
11:52 am 11:52 Mostly Cloudy 55 12.8 37 2.8 51 51 SSE 13 20 30.08 1019 10 16.0934 0 0
12:52 pm 12:52 Partly Cloudy 57 13.9 39 3.9 51 51 S 14 22 30.04 1017 10 16.0934 0 0
1:52 pm 13:52 Partly Cloudy 62 16.7 37 2.8 40 40 S 13 20 30 1016 10 16.0934 0 0
2:52 pm 14:52 Mostly Cloudy 61 16.1 38 3.3 43 43 S 12 19 29.98 1015 10 16.0934 0 0
3:52 pm 15:52 Mostly Cloudy 61 16.1 38 3.3 43 43 S 10 17 29.96 1015 10 16.0934 0 0
4:52 pm 16:52 Mostly Cloudy 61 16.1 37 2.8 41 41 SSW 9 15 29.94 1014 10 16.0934 0 0
5:52 pm 17:52 Mostly Cloudy 56 13.3 41 5 57 57 S 12 19 29.94 1014 10 16.0934 0 0
6:52 pm 18:52 Mostly Cloudy 56 13.3 39 3.9 53 53 S 9 15 29.93 1014 10 16.0934 0 0
7:52 pm 19:52 Partly Cloudy 56 13.3 38 3.3 51 51 SSW 12 19 29.93 1014 10 16.0934 0 0
8:52 pm 20:52 Mostly Cloudy 55 12.8 40 4.4 57 57 S 8 13 29.93 1013 10 16.0934 0 0
9:52 pm 21:52 Clear 53 11.7 43 6.1 69 69 S 9 15 29.91 1013 10 16.0934 0 0
10:52 pm 22:52 Cloudy 52 11.1 45 7.2 77 77 S 8 13 29.91 1013 10 16.0934 0 0
11:52 pm 23:52 Cloudy 52 11.1 46 7.8 80 80 S 8 13 29.91 1013 10 16.0934 0 0

Powered by AerisWeather